TGL16LR LGSM-LOWI

Flight info

Callsign TGL16LR
Flight time N/A
Altitude 36000
Route URNIL UL609 MES UG18 FSK UL608 DISOR DCT UTOMO DCT EMKES DCT KOREX DCT VEKEN DCT NANIT DCT RTT RTT1B
Aircraft A320/M-SDE3FGHIRWY/LB1

Departure

Time 2026-05-06 14:44
Airport Samos Airport (LGSM)

Arrival

Time N/A
Airport Innsbruck Airport (LOWI)
Time Latitude Longitude Altitude Speed Heading
2026-05-06 14:38 37.69003 26.91217 29 ft 0 kts 274°
2026-05-06 14:40 37.69004 26.91197 29 ft 6 kts 274°
2026-05-06 14:40 37.69007 26.91137 29 ft 6 kts 274°
2026-05-06 14:41 37.69007 26.91074 29 ft 8 kts 247°
2026-05-06 14:41 37.68947 26.91042 29 ft 11 kts 211°
2026-05-06 14:41 37.68934 26.90929 29 ft 18 kts 274°
2026-05-06 14:41 37.68945 26.90733 29 ft 26 kts 274°
2026-05-06 14:42 37.68958 26.90506 29 ft 26 kts 274°
2026-05-06 14:42 37.68973 26.90272 29 ft 26 kts 275°
2026-05-06 14:42 37.68984 26.90159 29 ft 5 kts 210°
2026-05-06 14:42 37.68979 26.90174 29 ft 3 kts 89°
2026-05-06 14:43 37.68979 26.90182 29 ft 0 kts 95°
2026-05-06 14:43 37.68962 26.90461 29 ft 72 kts 94°
2026-05-06 14:43 37.68908 26.91382 29 ft 136 kts 94°
2026-05-06 14:43 37.68820 26.92702 418 ft 153 kts 99°
2026-05-06 14:44 37.68451 26.93966 1025 ft 160 kts 133°
2026-05-06 14:44 37.67483 26.94705 1574 ft 170 kts 172°
2026-05-06 14:44 37.66334 26.94515 2174 ft 169 kts 213°
2026-05-06 14:45 37.64601 26.92609 3312 ft 166 kts 226°
2026-05-06 14:45 37.63752 26.91615 3794 ft 170 kts 226°
2026-05-06 14:45 37.62850 26.90529 4070 ft 187 kts 231°
2026-05-06 14:45 37.62216 26.89044 4270 ft 201 kts 264°
2026-05-06 14:46 37.62302 26.87255 4531 ft 213 kts 285°
2026-05-06 14:46 37.62642 26.85337 4755 ft 237 kts 286°
2026-05-06 14:46 37.63060 26.83222 5091 ft 259 kts 287°
2026-05-06 14:46 37.63502 26.80972 5776 ft 267 kts 286°
2026-05-06 14:47 37.63938 26.78690 6621 ft 268 kts 286°
2026-05-06 14:47 37.64366 26.76388 7423 ft 271 kts 286°
2026-05-06 14:47 37.64788 26.74064 8211 ft 273 kts 285°
2026-05-06 14:47 37.65207 26.71710 9008 ft 276 kts 285°
2026-05-06 14:48 37.65627 26.69328 9787 ft 279 kts 285°
2026-05-06 14:48 37.66050 26.66914 10394 ft 289 kts 285°
2026-05-06 14:48 37.66501 26.64343 10576 ft 312 kts 285°
2026-05-06 14:48 37.66987 26.61573 10794 ft 332 kts 285°
2026-05-06 14:49 37.67491 26.58698 11350 ft 339 kts 285°
2026-05-06 14:49 37.68072 26.55806 11988 ft 341 kts 291°
2026-05-06 14:49 37.69080 26.53100 12650 ft 341 kts 303°
2026-05-06 14:49 37.70531 26.50736 13305 ft 343 kts 315°
2026-05-06 14:50 37.72317 26.48725 13949 ft 345 kts 320°
2026-05-06 14:50 37.74150 26.46747 14535 ft 348 kts 320°
2026-05-06 14:50 37.75969 26.44772 15124 ft 350 kts 320°
2026-05-06 14:50 37.77844 26.42730 15725 ft 353 kts 320°
2026-05-06 14:51 37.79709 26.40698 16318 ft 355 kts 320°
2026-05-06 14:51 37.81583 26.38651 16900 ft 357 kts 319°
2026-05-06 14:51 37.83465 26.36590 17489 ft 359 kts 319°
2026-05-06 14:51 37.85362 26.34514 18057 ft 362 kts 319°
2026-05-06 14:52 37.87271 26.32429 18583 ft 364 kts 319°
2026-05-06 14:52 37.89192 26.30325 19071 ft 366 kts 319°
2026-05-06 14:52 37.91092 26.28239 19553 ft 367 kts 319°
2026-05-06 14:52 37.93023 26.26117 20026 ft 369 kts 319°
2026-05-06 14:53 37.94965 26.23983 20494 ft 371 kts 319°
2026-05-06 14:53 37.96920 26.21835 20974 ft 372 kts 319°
2026-05-06 14:53 37.98880 26.19678 21435 ft 374 kts 319°
2026-05-06 14:53 38.00849 26.17508 21896 ft 376 kts 319°
2026-05-06 14:54 38.02822 26.15330 22356 ft 377 kts 319°
2026-05-06 14:54 38.04807 26.13140 22809 ft 379 kts 319°
2026-05-06 14:54 38.06799 26.10944 23259 ft 380 kts 320°
2026-05-06 14:54 38.08798 26.08739 23692 ft 382 kts 319°
2026-05-06 14:55 38.10805 26.06523 24055 ft 383 kts 319°
2026-05-06 14:55 38.12818 26.04297 24423 ft 385 kts 319°
2026-05-06 14:55 38.14838 26.02061 24781 ft 386 kts 319°
2026-05-06 14:55 38.16864 25.99812 25114 ft 387 kts 319°
2026-05-06 14:56 38.18899 25.97552 25452 ft 389 kts 319°
2026-05-06 14:56 38.20939 25.95287 25770 ft 391 kts 319°
2026-05-06 14:56 38.22989 25.93007 26081 ft 393 kts 319°
2026-05-06 14:56 38.25050 25.90713 26401 ft 394 kts 319°
2026-05-06 14:57 38.27165 25.88479 26729 ft 396 kts 321°
2026-05-06 14:57 38.29347 25.86325 27048 ft 398 kts 323°
2026-05-06 14:57 38.31565 25.84213 27366 ft 399 kts 323°
2026-05-06 14:57 38.33801 25.82105 27679 ft 401 kts 323°
2026-05-06 14:58 38.36045 25.79982 27982 ft 402 kts 323°
2026-05-06 14:58 38.38287 25.77838 28279 ft 404 kts 323°
2026-05-06 14:58 38.40529 25.75665 28576 ft 405 kts 322°
2026-05-06 14:58 38.42767 25.73476 28872 ft 406 kts 322°
2026-05-06 14:59 38.45007 25.71273 29142 ft 408 kts 322°
2026-05-06 14:59 38.47257 25.69058 29419 ft 409 kts 322°
2026-05-06 14:59 38.49516 25.66839 29683 ft 411 kts 322°
2026-05-06 14:59 38.51788 25.64611 29939 ft 412 kts 322°
2026-05-06 15:00 38.54036 25.62409 30162 ft 414 kts 322°
2026-05-06 15:00 38.56318 25.60178 30435 ft 413 kts 322°
2026-05-06 15:00 38.58602 25.57943 30728 ft 413 kts 322°
2026-05-06 15:00 38.60877 25.55712 31032 ft 412 kts 322°
2026-05-06 15:01 38.63179 25.53449 31327 ft 412 kts 322°
2026-05-06 15:01 38.65415 25.51248 31609 ft 411 kts 322°
2026-05-06 15:01 38.67679 25.49013 31911 ft 410 kts 322°
2026-05-06 15:01 38.69936 25.46787 32217 ft 409 kts 322°
2026-05-06 15:02 38.72189 25.44563 32523 ft 409 kts 322°
2026-05-06 15:02 38.74441 25.42341 32810 ft 408 kts 322°
2026-05-06 15:02 38.76686 25.40127 33090 ft 408 kts 322°
2026-05-06 15:02 38.78932 25.37906 33373 ft 407 kts 321°
2026-05-06 15:03 38.81168 25.35687 33651 ft 407 kts 321°
2026-05-06 15:03 38.83406 25.33468 33928 ft 406 kts 321°
2026-05-06 15:03 38.85645 25.31251 34151 ft 407 kts 321°
2026-05-06 15:03 38.87882 25.29034 34373 ft 407 kts 321°
2026-05-06 15:04 38.90122 25.26808 34602 ft 407 kts 321°
2026-05-06 15:04 38.92355 25.24585 34831 ft 406 kts 321°
2026-05-06 15:04 38.94588 25.22363 35065 ft 406 kts 321°
2026-05-06 15:04 38.96820 25.20141 35290 ft 406 kts 321°
2026-05-06 15:05 38.99048 25.17922 35502 ft 405 kts 321°
2026-05-06 15:05 39.01275 25.15701 35719 ft 405 kts 321°
2026-05-06 15:05 39.03501 25.13478 35897 ft 405 kts 321°
2026-05-06 15:05 39.05726 25.11257 36041 ft 405 kts 321°
2026-05-06 15:06 39.07950 25.09037 36072 ft 404 kts 321°
2026-05-06 15:06 39.12392 25.04603 36070 ft 404 kts 321°
2026-05-06 15:07 39.16828 25.00156 36063 ft 405 kts 321°
2026-05-06 15:07 39.21277 24.95684 36071 ft 406 kts 321°
2026-05-06 15:08 39.25731 24.91211 36071 ft 406 kts 321°
2026-05-06 15:08 39.30181 24.86724 36067 ft 406 kts 321°
2026-05-06 15:09 39.34602 24.82265 36068 ft 406 kts 321°
2026-05-06 15:09 39.39050 24.77773 36065 ft 406 kts 321°
2026-05-06 15:10 39.43499 24.73283 36064 ft 406 kts 321°
2026-05-06 15:10 39.47938 24.68782 36063 ft 405 kts 321°
2026-05-06 15:11 39.52376 24.64273 36073 ft 405 kts 321°
2026-05-06 15:11 39.56807 24.59755 36065 ft 405 kts 321°
2026-05-06 15:12 39.61231 24.55238 36059 ft 405 kts 321°
2026-05-06 15:12 39.65660 24.50720 36054 ft 405 kts 321°
2026-05-06 15:13 39.70087 24.46199 36052 ft 405 kts 321°
2026-05-06 15:13 39.74513 24.41668 36052 ft 405 kts 321°
2026-05-06 15:14 39.78934 24.37136 36051 ft 405 kts 321°
2026-05-06 15:14 39.83365 24.32583 36046 ft 406 kts 321°
2026-05-06 15:15 39.87786 24.28011 36048 ft 406 kts 320°
2026-05-06 15:15 39.92218 24.23431 36047 ft 407 kts 321°
2026-05-06 15:16 39.96659 24.18848 36050 ft 407 kts 321°
2026-05-06 15:16 40.01097 24.14258 36054 ft 408 kts 321°
2026-05-06 15:17 40.04790 24.10433 36059 ft 408 kts 321°
2026-05-06 15:17 40.09951 24.05074 36048 ft 408 kts 320°
2026-05-06 15:18 40.14399 24.00460 36048 ft 409 kts 320°
2026-05-06 15:18 40.18125 23.96581 36050 ft 409 kts 320°
2026-05-06 15:19 40.22571 23.91931 36050 ft 409 kts 320°
2026-05-06 15:19 40.27014 23.87277 36044 ft 409 kts 320°
2026-05-06 15:20 40.31462 23.82616 36046 ft 409 kts 320°
2026-05-06 15:20 40.35909 23.77960 36044 ft 409 kts 320°
2026-05-06 15:21 40.40322 23.73326 36032 ft 409 kts 320°
2026-05-06 15:21 40.44797 23.68612 36030 ft 410 kts 320°
2026-05-06 15:22 40.49219 23.63952 36033 ft 410 kts 320°
2026-05-06 15:22 40.53701 23.59226 36037 ft 411 kts 320°
2026-05-06 15:23 40.58125 23.54544 36038 ft 411 kts 320°
2026-05-06 15:23 40.62572 23.49810 36040 ft 411 kts 320°
2026-05-06 15:24 40.67019 23.45084 36024 ft 411 kts 320°
2026-05-06 15:24 40.71472 23.40360 36010 ft 411 kts 320°
2026-05-06 15:25 40.75930 23.35608 36001 ft 413 kts 320°
2026-05-06 15:25 40.80395 23.30837 36020 ft 413 kts 320°
2026-05-06 15:26 40.84864 23.26057 36019 ft 414 kts 320°
2026-05-06 15:26 40.89333 23.21266 36021 ft 414 kts 320°
2026-05-06 15:27 40.93808 23.16472 36018 ft 414 kts 320°
2026-05-06 15:27 40.98272 23.11678 36018 ft 413 kts 320°
2026-05-06 15:28 41.02735 23.06872 36006 ft 414 kts 319°
2026-05-06 15:28 41.07202 23.02044 36018 ft 415 kts 319°
2026-05-06 15:29 41.11382 22.96818 36015 ft 413 kts 309°
2026-05-06 15:29 41.15095 22.90990 36014 ft 414 kts 309°
2026-05-06 15:30 41.18810 22.85156 36015 ft 414 kts 309°
2026-05-06 15:30 41.22519 22.79310 36012 ft 414 kts 309°
2026-05-06 15:31 41.26028 22.73267 36010 ft 413 kts 303°
2026-05-06 15:31 41.29207 22.66955 36007 ft 414 kts 303°
2026-05-06 15:32 41.34000 22.57409 35999 ft 414 kts 303°
2026-05-06 15:32 41.37194 22.51041 36011 ft 413 kts 303°
2026-05-06 15:33 41.40383 22.44665 36004 ft 414 kts 303°
2026-05-06 15:33 41.43573 22.38282 36002 ft 414 kts 303°
2026-05-06 15:34 41.46755 22.31889 35990 ft 414 kts 302°
2026-05-06 15:34 41.49930 22.25484 35989 ft 414 kts 302°
2026-05-06 15:35 41.53108 22.19083 35982 ft 414 kts 303°
2026-05-06 15:35 41.56282 22.12681 35981 ft 414 kts 302°
2026-05-06 15:36 41.59450 22.06265 35973 ft 414 kts 302°
2026-05-06 15:36 41.62615 21.99849 35971 ft 414 kts 302°
2026-05-06 15:37 41.65776 21.93421 35969 ft 414 kts 302°
2026-05-06 15:37 41.68934 21.86984 35975 ft 414 kts 302°
2026-05-06 15:38 41.72090 21.80535 35978 ft 414 kts 302°
2026-05-06 15:38 41.75247 21.74082 35977 ft 414 kts 302°
2026-05-06 15:39 41.78397 21.67624 35973 ft 415 kts 302°
2026-05-06 15:39 41.81527 21.61189 35970 ft 415 kts 302°
2026-05-06 15:40 41.84675 21.54703 35973 ft 415 kts 302°
2026-05-06 15:40 41.87822 21.48216 35980 ft 415 kts 302°
2026-05-06 15:41 41.90962 21.41720 35981 ft 415 kts 301°
2026-05-06 15:41 41.94097 21.35220 35989 ft 415 kts 301°
2026-05-06 15:42 41.97228 21.28712 35989 ft 415 kts 301°
2026-05-06 15:42 42.00361 21.22194 36000 ft 415 kts 301°
2026-05-06 15:43 42.03488 21.15678 36006 ft 415 kts 301°
2026-05-06 15:43 42.06615 21.09148 36021 ft 415 kts 301°
2026-05-06 15:44 42.09727 21.02624 36012 ft 414 kts 301°
2026-05-06 15:44 42.12838 20.96097 36032 ft 414 kts 301°
2026-05-06 15:45 42.15948 20.89549 36034 ft 415 kts 301°
2026-05-06 15:45 42.19052 20.82999 36042 ft 414 kts 301°
2026-05-06 15:46 42.22158 20.76446 36047 ft 415 kts 300°
2026-05-06 15:46 42.25254 20.69884 36051 ft 415 kts 300°
2026-05-06 15:47 42.28345 20.63314 36048 ft 415 kts 300°
2026-05-06 15:47 42.31436 20.56738 36048 ft 415 kts 300°
2026-05-06 15:48 42.34524 20.50156 36049 ft 414 kts 300°
2026-05-06 15:48 42.37606 20.43566 36057 ft 415 kts 300°
2026-05-06 15:49 42.40691 20.36972 36052 ft 415 kts 300°
2026-05-06 15:49 42.43768 20.30358 36056 ft 415 kts 300°
2026-05-06 15:50 42.46846 20.23741 36059 ft 415 kts 300°
2026-05-06 15:50 42.49895 20.17158 36058 ft 415 kts 300°
2026-05-06 15:51 42.52988 20.10478 36061 ft 416 kts 300°
2026-05-06 15:51 42.56039 20.03884 36073 ft 416 kts 300°
2026-05-06 15:52 42.59107 19.97230 36073 ft 416 kts 300°
2026-05-06 15:52 42.62168 19.90567 36071 ft 416 kts 300°
2026-05-06 15:53 42.65348 19.84013 36071 ft 418 kts 307°
2026-05-06 15:53 42.69041 19.77914 36090 ft 418 kts 307°
2026-05-06 15:54 42.72737 19.71804 36078 ft 418 kts 307°
2026-05-06 15:54 42.76433 19.65678 36075 ft 419 kts 307°
2026-05-06 15:55 42.80128 19.59535 36073 ft 419 kts 307°
2026-05-06 15:55 42.83816 19.53382 36073 ft 419 kts 306°
2026-05-06 15:56 42.87505 19.47221 36063 ft 419 kts 306°
2026-05-06 15:56 42.91187 19.41060 36074 ft 419 kts 306°
2026-05-06 15:57 42.94870 19.34883 36080 ft 419 kts 306°
2026-05-06 15:57 42.98547 19.28700 36067 ft 419 kts 306°
2026-05-06 15:58 43.02216 19.22510 36062 ft 420 kts 306°
2026-05-06 15:58 43.05888 19.16307 36061 ft 420 kts 306°
2026-05-06 15:59 43.09573 19.10098 36050 ft 420 kts 306°
2026-05-06 15:59 43.13243 19.03881 36050 ft 420 kts 306°
2026-05-06 16:00 43.16903 18.97650 36049 ft 420 kts 306°
2026-05-06 16:00 43.20541 18.91454 36037 ft 420 kts 306°
2026-05-06 16:01 43.24203 18.85211 36036 ft 420 kts 306°
2026-05-06 16:01 43.27864 18.78953 36030 ft 420 kts 306°
2026-05-06 16:02 43.31520 18.72693 36032 ft 420 kts 305°
2026-05-06 16:02 43.35162 18.66432 36027 ft 419 kts 305°
2026-05-06 16:03 43.38797 18.60175 36033 ft 419 kts 305°
2026-05-06 16:03 43.42435 18.53909 36028 ft 419 kts 305°
2026-05-06 16:04 43.46066 18.47630 36026 ft 419 kts 305°
2026-05-06 16:04 43.49692 18.41345 36041 ft 420 kts 304°
2026-05-06 16:05 43.53330 18.35039 36012 ft 421 kts 304°
2026-05-06 16:05 43.56357 18.29779 36001 ft 421 kts 304°
2026-05-06 16:06 43.59991 18.23438 35977 ft 422 kts 304°
2026-05-06 16:06 43.63629 18.17068 35987 ft 422 kts 304°
2026-05-06 16:07 43.67271 18.10693 35995 ft 423 kts 304°
2026-05-06 16:07 43.70913 18.04320 35982 ft 422 kts 304°
2026-05-06 16:08 43.74551 17.97943 35982 ft 422 kts 304°
2026-05-06 16:08 43.78181 17.91546 35990 ft 423 kts 304°
2026-05-06 16:09 43.81791 17.85120 36002 ft 422 kts 302°
2026-05-06 16:09 43.85135 17.78462 36001 ft 420 kts 298°
2026-05-06 16:10 43.88259 17.71631 36005 ft 419 kts 298°
2026-05-06 16:10 43.91382 17.64800 36005 ft 420 kts 298°
2026-05-06 16:11 43.94571 17.58001 36000 ft 420 kts 299°
2026-05-06 16:11 43.97775 17.51232 36024 ft 419 kts 298°
2026-05-06 16:12 44.00937 17.44504 36021 ft 418 kts 298°
2026-05-06 16:12 44.04100 17.37737 36027 ft 417 kts 298°
2026-05-06 16:13 44.07258 17.30962 36008 ft 418 kts 298°
2026-05-06 16:13 44.10439 17.24129 36013 ft 418 kts 298°
2026-05-06 16:14 44.13575 17.17374 36013 ft 418 kts 298°
2026-05-06 16:14 44.16724 17.10574 36001 ft 418 kts 298°
2026-05-06 16:15 44.19861 17.03761 36002 ft 418 kts 298°
2026-05-06 16:15 44.22997 16.96942 36029 ft 418 kts 297°
2026-05-06 16:16 44.26136 16.90130 36029 ft 417 kts 297°
2026-05-06 16:16 44.29258 16.83337 36014 ft 415 kts 297°
2026-05-06 16:17 44.32368 16.76552 36009 ft 414 kts 297°
2026-05-06 16:17 44.35459 16.69770 35997 ft 415 kts 297°
2026-05-06 16:18 44.38553 16.62955 36007 ft 415 kts 297°
2026-05-06 16:18 44.41653 16.56134 35993 ft 415 kts 297°
2026-05-06 16:19 44.44752 16.49310 35991 ft 415 kts 297°
2026-05-06 16:19 44.47842 16.42483 35991 ft 415 kts 297°
2026-05-06 16:20 44.50910 16.35697 36007 ft 415 kts 297°
2026-05-06 16:20 44.53986 16.28860 35980 ft 415 kts 297°
2026-05-06 16:21 44.57061 16.22009 35980 ft 415 kts 296°
2026-05-06 16:21 44.60132 16.15145 35978 ft 415 kts 296°
2026-05-06 16:22 44.63201 16.08275 35980 ft 416 kts 297°
2026-05-06 16:22 44.66274 16.01383 35978 ft 417 kts 297°
2026-05-06 16:23 44.69346 15.94470 35972 ft 417 kts 297°
2026-05-06 16:23 44.72412 15.87546 35966 ft 417 kts 297°
2026-05-06 16:24 44.75484 15.80605 35957 ft 418 kts 297°
2026-05-06 16:24 44.79205 15.74240 35982 ft 429 kts 312°
2026-05-06 16:25 44.83642 15.68597 35965 ft 430 kts 312°
2026-05-06 16:25 44.88072 15.62942 35955 ft 430 kts 312°
2026-05-06 16:26 44.92504 15.57265 35955 ft 431 kts 312°
2026-05-06 16:26 44.96913 15.51603 35943 ft 431 kts 312°
2026-05-06 16:27 45.01378 15.45851 35948 ft 432 kts 312°
2026-05-06 16:27 45.05789 15.40154 35930 ft 433 kts 312°
2026-05-06 16:28 45.10232 15.34404 35930 ft 433 kts 312°
2026-05-06 16:28 45.14679 15.28641 35944 ft 434 kts 311°
2026-05-06 16:29 45.19128 15.22856 35935 ft 435 kts 311°
2026-05-06 16:29 45.23584 15.17057 35927 ft 435 kts 311°
2026-05-06 16:30 45.27288 15.12225 35931 ft 436 kts 311°
2026-05-06 16:30 45.32503 15.05408 35934 ft 436 kts 311°
2026-05-06 16:31 45.36962 14.99572 35943 ft 436 kts 311°
2026-05-06 16:31 45.41415 14.93716 35936 ft 436 kts 312°
2026-05-06 16:32 45.45867 14.87843 35956 ft 437 kts 311°
2026-05-06 16:32 45.50327 14.81961 35951 ft 437 kts 311°
2026-05-06 16:33 45.54784 14.76072 35950 ft 437 kts 311°
2026-05-06 16:34 45.61460 14.67214 35958 ft 437 kts 311°
2026-05-06 16:34 45.65903 14.61296 35967 ft 437 kts 311°
2026-05-06 16:35 45.70354 14.55355 35949 ft 438 kts 311°
2026-05-06 16:35 45.74807 14.49407 35942 ft 438 kts 311°
2026-05-06 16:36 45.79273 14.43438 35950 ft 439 kts 311°
2026-05-06 16:36 45.83731 14.37458 35953 ft 439 kts 311°
2026-05-06 16:37 45.88183 14.31460 35967 ft 439 kts 311°
2026-05-06 16:37 45.92640 14.25453 35948 ft 439 kts 311°
2026-05-06 16:38 45.97068 14.19484 35943 ft 439 kts 311°
2026-05-06 16:38 46.01515 14.13460 35945 ft 439 kts 311°
2026-05-06 16:39 46.05957 14.07416 35920 ft 439 kts 311°
2026-05-06 16:39 46.10394 14.01371 35960 ft 440 kts 310°
2026-05-06 16:40 46.14844 13.95310 35934 ft 440 kts 310°
2026-05-06 16:40 46.19291 13.89237 35924 ft 441 kts 310°
2026-05-06 16:41 46.23734 13.83143 35915 ft 441 kts 310°
2026-05-06 16:41 46.28168 13.77037 35906 ft 440 kts 310°
2026-05-06 16:42 46.32605 13.70929 35943 ft 441 kts 310°
2026-05-06 16:42 46.37037 13.64816 35931 ft 440 kts 310°
2026-05-06 16:43 46.41457 13.58697 35919 ft 439 kts 310°
2026-05-06 16:43 46.45862 13.52575 35917 ft 438 kts 310°
2026-05-06 16:44 46.50261 13.46450 35913 ft 438 kts 310°
2026-05-06 16:44 46.54658 13.40326 35930 ft 438 kts 309°
2026-05-06 16:45 46.59144 13.34301 35909 ft 441 kts 312°
2026-05-06 16:45 46.63876 13.28578 35888 ft 443 kts 314°
2026-05-06 16:46 46.68649 13.22907 35873 ft 443 kts 314°
2026-05-06 16:46 46.73350 13.17190 35872 ft 443 kts 313°
2026-05-06 16:47 46.78048 13.11389 35898 ft 442 kts 313°
2026-05-06 16:47 46.82744 13.05567 35865 ft 443 kts 313°
2026-05-06 16:48 46.87457 12.99731 35760 ft 444 kts 313°
2026-05-06 16:48 46.89814 12.96814 35085 ft 444 kts 312°
2026-05-06 16:48 46.92195 12.93857 34093 ft 453 kts 311°
2026-05-06 16:48 46.94607 12.90851 33191 ft 457 kts 311°
2026-05-06 16:49 46.97034 12.87829 32338 ft 459 kts 311°
2026-05-06 16:49 46.99467 12.84802 31601 ft 459 kts 311°
2026-05-06 16:49 47.01907 12.81769 30682 ft 461 kts 311°
2026-05-06 16:49 47.04356 12.78722 29828 ft 463 kts 311°
2026-05-06 16:50 47.06808 12.75658 28795 ft 464 kts 311°
2026-05-06 16:50 47.09271 12.72571 27827 ft 465 kts 311°
2026-05-06 16:50 47.11719 12.69509 27147 ft 460 kts 312°
2026-05-06 16:50 47.13327 12.67501 26676 ft 457 kts 312°
2026-05-06 16:51 47.16542 12.63479 25732 ft 450 kts 313°
2026-05-06 16:51 47.18911 12.60498 25032 ft 446 kts 313°
2026-05-06 16:51 47.21252 12.57537 24187 ft 443 kts 313°
2026-05-06 16:51 47.23591 12.54575 23373 ft 443 kts 313°
2026-05-06 16:52 47.25924 12.51627 22450 ft 441 kts 313°
2026-05-06 16:52 47.28244 12.48699 21445 ft 438 kts 316°
2026-05-06 16:52 47.30559 12.45775 20658 ft 438 kts 317°
2026-05-06 16:52 47.32861 12.42858 20009 ft 435 kts 317°
2026-05-06 16:53 47.35145 12.39956 19375 ft 431 kts 316°
2026-05-06 16:53 47.37276 12.36905 18738 ft 422 kts 306°
2026-05-06 16:53 47.38856 12.33360 17695 ft 408 kts 292°
2026-05-06 16:53 47.39775 12.29466 16526 ft 396 kts 279°
2026-05-06 16:54 47.40183 12.25491 15354 ft 389 kts 275°
2026-05-06 16:54 47.40544 12.21566 14342 ft 383 kts 275°
2026-05-06 16:54 47.40783 12.19007 13687 ft 378 kts 275°
2026-05-06 16:54 47.41144 12.15194 12587 ft 372 kts 275°
2026-05-06 16:55 47.41500 12.11433 11485 ft 367 kts 275°
2026-05-06 16:55 47.41955 12.06538 10152 ft 360 kts 275°
2026-05-06 16:55 47.42284 12.02986 9862 ft 334 kts 275°
2026-05-06 16:55 47.42582 11.99747 9857 ft 303 kts 272°
2026-05-06 16:56 47.42481 11.96782 9851 ft 283 kts 254°
2026-05-06 16:56 47.42075 11.94979 9829 ft 277 kts 243°
2026-05-06 16:56 47.41040 11.92603 9348 ft 269 kts 226°
2026-05-06 16:56 47.39614 11.90909 8803 ft 267 kts 210°